Location: Choisy
(48.7685°N, 2.4187°E)
Time: 03:51:23
(UTC+00:00)

USA 215 - Pass Details

Date: 24 October 2021
Orbit: 1099 x 1109 km, 123.0° (Epoch: 20 November)

Event Time Altitude Azimuth Distance (km) Brightness Sun altitude
Exits shadow 17:21:14 - 55° (NE) 3,437 5.3 -6.8°
Reaches altitude 10° 17:22:28 10° 56° (NE) 2,965 5.0 -7.0°
Maximum altitude 17:29:02 88° 144° (SE) 1,110 3.3 -8.1°
Drops below altitude 10° 17:35:36 10° 237° (WSW) 2,961 6.7 -9.2°
Sets 17:38:05 0° 237° (WSW) 3,918 7.5 -9.6°
